{"data":{"norad_id":66000,"intl_designator":"2025-231F","name":"HULIANWANG DIGUI-92","alt_names":[],"object_type":"PAYLOAD","status":"ACTIVE","operator":null,"country":"PRC","launch_date":"2025-10-16","launch_site_code":"WSC","launch_vehicle":null,"mission":null,"orbit_class":"UNKNOWN","rcs_meters":null,"size_class":null,"mass_kg":null,"dimensions":null,"purposes":[],"wikipedia_slug":null,"has_3d_model":false,"image_url":null,"decayed_at":null,"tle_current":{"epoch":"2026-05-25T01:14:25.939968Z","epoch_age_seconds":71406,"freshness":"FRESH","line1":"1 66000U 25231F   26145.05168912 -.00000103  00000+0  45908-4 0  9999","line2":"2 66000  50.0055 258.6266 0000906 151.5501 208.5420 13.29328307 29816","mean_motion":13.29328307,"eccentricity":9.06e-5,"inclination_deg":50.0055,"raan_deg":258.6266,"arg_perigee_deg":151.5501,"mean_anomaly_deg":208.542,"bstar":4.5908e-5,"rev_number":2981,"period_min":108.32538451316,"perigee_km":1148.6158771865,"apogee_km":1149.9798483836,"semimajor_km":7527.4348627851,"source":"CELESTRAK","updated_at":"2026-05-25T13:38:05.884295Z"}}}